DAL2616 KLAS-KPHX

Flight info

Callsign DAL2616
Flight time 0h 46m
Altitude 29000
Route RASLR3 ZAYNE WOTRO BRUSR1
Aircraft A320/M-SDE3FGHIRWY/LB1

Departure

Time 2026-05-06 19:52
Airport Harry Reid International Airport (KLAS)

Arrival

Time 2026-05-06 20:39
Airport Phoenix Sky Harbor International Airport (KPHX)
Time Latitude Longitude Altitude Speed Heading
2026-05-06 19:42 36.08339 -115.15319 2117 ft 0 kts 157°
2026-05-06 19:42 36.08342 -115.15321 2119 ft 2 kts 159°
2026-05-06 19:43 36.08356 -115.15328 2118 ft 3 kts 162°
2026-05-06 19:43 36.08375 -115.15333 2118 ft 3 kts 166°
2026-05-06 19:43 36.08374 -115.15321 2117 ft 3 kts 110°
2026-05-06 19:43 36.08381 -115.15345 2119 ft 3 kts 113°
2026-05-06 19:44 36.08390 -115.15367 2120 ft 3 kts 127°
2026-05-06 19:44 36.08401 -115.15381 2117 ft 3 kts 178°
2026-05-06 19:44 36.08406 -115.15382 2121 ft 1 kts 231°
2026-05-06 19:44 36.08406 -115.15381 2121 ft 0 kts 231°
2026-05-06 19:46 36.08402 -115.15388 2117 ft 5 kts 231°
2026-05-06 19:46 36.08375 -115.15448 2120 ft 9 kts 245°
2026-05-06 19:46 36.08323 -115.15493 2121 ft 11 kts 172°
2026-05-06 19:47 36.08245 -115.15446 2123 ft 14 kts 154°
2026-05-06 19:47 36.08141 -115.15436 2128 ft 17 kts 192°
2026-05-06 19:47 36.08018 -115.15415 2127 ft 20 kts 152°
2026-05-06 19:47 36.07889 -115.15342 2128 ft 21 kts 155°
2026-05-06 19:48 36.07803 -115.15215 2126 ft 22 kts 90°
2026-05-06 19:48 36.07798 -115.15018 2125 ft 23 kts 94°
2026-05-06 19:48 36.07785 -115.14812 2125 ft 25 kts 95°
2026-05-06 19:48 36.07769 -115.14580 2119 ft 28 kts 95°
2026-05-06 19:49 36.07755 -115.14357 2121 ft 26 kts 94°
2026-05-06 19:49 36.07753 -115.14128 2120 ft 27 kts 89°
2026-05-06 19:49 36.07753 -115.13902 2124 ft 26 kts 90°
2026-05-06 19:49 36.07753 -115.13676 2125 ft 27 kts 90°
2026-05-06 19:50 36.07753 -115.13447 2127 ft 27 kts 89°
2026-05-06 19:50 36.07755 -115.13208 2124 ft 29 kts 90°
2026-05-06 19:50 36.07755 -115.12967 2122 ft 27 kts 91°
2026-05-06 19:50 36.07755 -115.12796 2120 ft 19 kts 89°
2026-05-06 19:51 36.07751 -115.12630 2118 ft 15 kts 112°
2026-05-06 19:51 36.07678 -115.12600 2122 ft 8 kts 182°
2026-05-06 19:51 36.07644 -115.12619 2124 ft 3 kts 237°
2026-05-06 19:51 36.07644 -115.12641 2124 ft 5 kts 269°
2026-05-06 19:52 36.07643 -115.12970 2122 ft 75 kts 270°
2026-05-06 19:52 36.07641 -115.13894 2122 ft 135 kts 269°
2026-05-06 19:52 36.07635 -115.15233 2134 ft 180 kts 270°
2026-05-06 19:52 36.07622 -115.16773 2797 ft 177 kts 270°
2026-05-06 19:53 36.07608 -115.18317 3435 ft 182 kts 271°
2026-05-06 19:53 36.07606 -115.19915 3915 ft 194 kts 271°
2026-05-06 19:53 36.07471 -115.21647 4268 ft 210 kts 261°
2026-05-06 19:53 36.07195 -115.23481 4590 ft 230 kts 260°
2026-05-06 19:54 36.06601 -115.25397 5006 ft 249 kts 232°
2026-05-06 19:54 36.05208 -115.26748 5468 ft 267 kts 202°
2026-05-06 19:54 36.03415 -115.27535 6068 ft 279 kts 199°
2026-05-06 19:54 36.01554 -115.28321 6798 ft 287 kts 196°
2026-05-06 19:55 35.99558 -115.28522 7570 ft 291 kts 171°
2026-05-06 19:55 35.97661 -115.27662 8337 ft 294 kts 144°
2026-05-06 19:55 35.96112 -115.26017 9150 ft 296 kts 135°
2026-05-06 19:55 35.94574 -115.24288 9923 ft 302 kts 135°
2026-05-06 19:56 35.93002 -115.22541 10600 ft 310 kts 135°
2026-05-06 19:56 35.91431 -115.20586 10825 ft 331 kts 126°
2026-05-06 19:56 35.90144 -115.18152 11186 ft 346 kts 117°
2026-05-06 19:56 35.88908 -115.15582 11882 ft 350 kts 117°
2026-05-06 19:57 35.87655 -115.12998 12630 ft 352 kts 117°
2026-05-06 19:57 35.86524 -115.10323 13384 ft 351 kts 108°
2026-05-06 19:57 35.85766 -115.07461 14077 ft 351 kts 103°
2026-05-06 19:57 35.85066 -115.04564 14711 ft 354 kts 103°
2026-05-06 19:58 35.84364 -115.01643 15340 ft 358 kts 102°
2026-05-06 19:58 35.83653 -114.98686 15909 ft 362 kts 102°
2026-05-06 19:58 35.82909 -114.95703 16514 ft 367 kts 107°
2026-05-06 19:58 35.81682 -114.92900 17095 ft 377 kts 119°
2026-05-06 19:59 35.80229 -114.90198 17702 ft 380 kts 120°
2026-05-06 19:59 35.78737 -114.87481 18328 ft 384 kts 120°
2026-05-06 19:59 35.77228 -114.84747 18839 ft 387 kts 120°
2026-05-06 19:59 35.75705 -114.81998 19386 ft 390 kts 120°
2026-05-06 20:00 35.74172 -114.79223 19925 ft 393 kts 120°
2026-05-06 20:00 35.72632 -114.76427 20438 ft 396 kts 120°
2026-05-06 20:00 35.71085 -114.73611 20992 ft 399 kts 120°
2026-05-06 20:00 35.69524 -114.70771 21527 ft 402 kts 120°
2026-05-06 20:01 35.67950 -114.67914 22059 ft 405 kts 120°
2026-05-06 20:01 35.66365 -114.65036 22573 ft 408 kts 120°
2026-05-06 20:01 35.64768 -114.62138 23051 ft 411 kts 120°
2026-05-06 20:01 35.63157 -114.59219 23545 ft 414 kts 120°
2026-05-06 20:02 35.61537 -114.56283 23955 ft 416 kts 120°
2026-05-06 20:02 35.59905 -114.53327 24344 ft 419 kts 120°
2026-05-06 20:02 35.58264 -114.50362 24744 ft 420 kts 120°
2026-05-06 20:02 35.56615 -114.47386 25167 ft 422 kts 120°
2026-05-06 20:03 35.54962 -114.44402 25547 ft 424 kts 120°
2026-05-06 20:03 35.53322 -114.41446 25925 ft 426 kts 120°
2026-05-06 20:03 35.51628 -114.38400 26303 ft 428 kts 120°
2026-05-06 20:03 35.49966 -114.35413 26642 ft 430 kts 120°
2026-05-06 20:04 35.48275 -114.32374 26988 ft 432 kts 119°
2026-05-06 20:04 35.46579 -114.29321 27341 ft 434 kts 119°
2026-05-06 20:04 35.44874 -114.26255 27716 ft 436 kts 119°
2026-05-06 20:04 35.43159 -114.23176 28024 ft 438 kts 119°
2026-05-06 20:05 35.41436 -114.20089 28376 ft 439 kts 119°
2026-05-06 20:05 35.39704 -114.16995 28753 ft 440 kts 119°
2026-05-06 20:05 35.37968 -114.13898 29017 ft 441 kts 119°
2026-05-06 20:05 35.36243 -114.10826 29079 ft 430 kts 119°
2026-05-06 20:06 35.32903 -114.04886 29109 ft 420 kts 118°
2026-05-06 20:06 35.30202 -113.98673 29123 ft 408 kts 103°
2026-05-06 20:07 35.28771 -113.91992 29118 ft 405 kts 99°
2026-05-06 20:07 35.27379 -113.85306 29118 ft 406 kts 99°
2026-05-06 20:08 35.25982 -113.78628 29107 ft 405 kts 99°
2026-05-06 20:08 35.24584 -113.71954 29088 ft 404 kts 99°
2026-05-06 20:09 35.23189 -113.65291 29050 ft 404 kts 99°
2026-05-06 20:09 35.21874 -113.58623 29016 ft 403 kts 97°
2026-05-06 20:10 35.20654 -113.51978 28981 ft 403 kts 97°
2026-05-06 20:10 35.19416 -113.45300 28978 ft 403 kts 98°
2026-05-06 20:11 35.18139 -113.38622 28986 ft 404 kts 98°
2026-05-06 20:11 35.16556 -113.31997 28981 ft 411 kts 109°
2026-05-06 20:12 35.13541 -113.25975 28980 ft 418 kts 118°
2026-05-06 20:12 35.10310 -113.20068 28980 ft 418 kts 118°
2026-05-06 20:13 35.07095 -113.14180 28956 ft 415 kts 118°
2026-05-06 20:13 35.05489 -113.11260 28709 ft 412 kts 118°
2026-05-06 20:13 35.03888 -113.08364 28477 ft 411 kts 118°
2026-05-06 20:14 35.02289 -113.05480 28262 ft 410 kts 118°
2026-05-06 20:14 35.00695 -113.02602 28054 ft 409 kts 118°
2026-05-06 20:14 34.99103 -112.99727 27833 ft 408 kts 119°
2026-05-06 20:14 34.97520 -112.96871 27627 ft 406 kts 119°
2026-05-06 20:15 34.95938 -112.94024 27402 ft 404 kts 119°
2026-05-06 20:15 34.94362 -112.91192 27201 ft 403 kts 119°
2026-05-06 20:15 34.92791 -112.88367 26996 ft 401 kts 119°
2026-05-06 20:15 34.91231 -112.85554 26786 ft 400 kts 119°
2026-05-06 20:16 34.89676 -112.82750 26577 ft 399 kts 119°
2026-05-06 20:16 34.88125 -112.79954 26367 ft 398 kts 119°
2026-05-06 20:16 34.86593 -112.77199 26172 ft 398 kts 120°
2026-05-06 20:16 34.85041 -112.74415 25960 ft 397 kts 120°
2026-05-06 20:17 34.83485 -112.71630 25752 ft 396 kts 120°
2026-05-06 20:17 34.81936 -112.68863 25545 ft 395 kts 120°
2026-05-06 20:17 34.80388 -112.66102 25336 ft 394 kts 120°
2026-05-06 20:17 34.78830 -112.63325 25136 ft 391 kts 120°
2026-05-06 20:18 34.77315 -112.60625 24933 ft 390 kts 120°
2026-05-06 20:18 34.75790 -112.57906 24727 ft 389 kts 120°
2026-05-06 20:18 34.74780 -112.56105 24605 ft 388 kts 120°
2026-05-06 20:18 34.73240 -112.53363 24388 ft 387 kts 120°
2026-05-06 20:19 34.71725 -112.50664 24201 ft 386 kts 120°
2026-05-06 20:19 34.70077 -112.48082 24157 ft 389 kts 129°
2026-05-06 20:19 34.68089 -112.45887 23754 ft 392 kts 137°
2026-05-06 20:19 34.65966 -112.43817 23286 ft 390 kts 137°
2026-05-06 20:20 34.63855 -112.41764 22884 ft 388 kts 137°
2026-05-06 20:20 34.61756 -112.39720 22475 ft 386 kts 137°
2026-05-06 20:20 34.59674 -112.37688 22068 ft 382 kts 138°
2026-05-06 20:20 34.57605 -112.35669 21664 ft 380 kts 138°
2026-05-06 20:21 34.55554 -112.33666 21251 ft 378 kts 138°
2026-05-06 20:21 34.53515 -112.31674 20842 ft 375 kts 138°
2026-05-06 20:21 34.51485 -112.29696 20433 ft 374 kts 138°
2026-05-06 20:21 34.49458 -112.27727 20028 ft 372 kts 139°
2026-05-06 20:22 34.47445 -112.25770 19606 ft 370 kts 139°
2026-05-06 20:22 34.45360 -112.23954 19215 ft 370 kts 148°
2026-05-06 20:22 34.43014 -112.22678 18770 ft 370 kts 161°
2026-05-06 20:22 34.40516 -112.21945 18385 ft 369 kts 167°
2026-05-06 20:23 34.38011 -112.21298 17989 ft 365 kts 166°
2026-05-06 20:23 34.35542 -112.20659 17679 ft 362 kts 166°
2026-05-06 20:23 34.33084 -112.20023 17261 ft 360 kts 166°
2026-05-06 20:23 34.30629 -112.19390 17002 ft 360 kts 166°
2026-05-06 20:24 34.28179 -112.18757 16743 ft 360 kts 166°
2026-05-06 20:24 34.25730 -112.18125 16494 ft 359 kts 166°
2026-05-06 20:24 34.23291 -112.17495 16244 ft 358 kts 166°
2026-05-06 20:24 34.20856 -112.16866 15993 ft 357 kts 166°
2026-05-06 20:25 34.18431 -112.16238 15747 ft 356 kts 166°
2026-05-06 20:25 34.16005 -112.15610 15500 ft 354 kts 166°
2026-05-06 20:25 34.13635 -112.14998 15258 ft 352 kts 167°
2026-05-06 20:25 34.11231 -112.14381 15011 ft 345 kts 167°
2026-05-06 20:26 34.08932 -112.13786 14771 ft 339 kts 165°
2026-05-06 20:26 34.06707 -112.12942 14537 ft 333 kts 160°
2026-05-06 20:26 34.04499 -112.12044 14298 ft 328 kts 160°
2026-05-06 20:26 34.02344 -112.11167 14073 ft 326 kts 160°
2026-05-06 20:27 34.00233 -112.10306 13948 ft 324 kts 160°
2026-05-06 20:27 33.98089 -112.09433 13740 ft 325 kts 160°
2026-05-06 20:27 33.95947 -112.08559 13323 ft 325 kts 160°
2026-05-06 20:27 33.93800 -112.07681 12873 ft 326 kts 160°
2026-05-06 20:28 33.91654 -112.06806 12481 ft 325 kts 160°
2026-05-06 20:28 33.89519 -112.05939 12049 ft 325 kts 160°
2026-05-06 20:28 33.87383 -112.05073 11754 ft 321 kts 160°
2026-05-06 20:28 33.85278 -112.04220 11275 ft 318 kts 160°
2026-05-06 20:29 33.83187 -112.03375 10688 ft 314 kts 160°
2026-05-06 20:29 33.81113 -112.02538 10255 ft 314 kts 160°
2026-05-06 20:29 33.79037 -112.01697 9830 ft 315 kts 160°
2026-05-06 20:29 33.76961 -112.00854 9422 ft 315 kts 160°
2026-05-06 20:30 33.74892 -112.00016 9136 ft 311 kts 160°
2026-05-06 20:30 33.70866 -111.98388 8945 ft 301 kts 160°
2026-05-06 20:30 33.68893 -111.97591 8895 ft 299 kts 160°
2026-05-06 20:31 33.66954 -111.96808 8779 ft 288 kts 160°
2026-05-06 20:31 33.65092 -111.96057 8641 ft 277 kts 160°
2026-05-06 20:31 33.63299 -111.95332 8494 ft 266 kts 160°
2026-05-06 20:31 33.61557 -111.94628 8225 ft 263 kts 161°
2026-05-06 20:32 33.59848 -111.93936 7897 ft 262 kts 161°
2026-05-06 20:32 33.58120 -111.93238 7555 ft 261 kts 162°
2026-05-06 20:32 33.56408 -111.92548 7217 ft 258 kts 162°
2026-05-06 20:32 33.54773 -111.91786 7086 ft 247 kts 149°
2026-05-06 20:33 33.53517 -111.90445 6896 ft 242 kts 125°
2026-05-06 20:33 33.52840 -111.88623 6595 ft 241 kts 101°
2026-05-06 20:33 33.52744 -111.86631 6283 ft 240 kts 91°
2026-05-06 20:33 33.52694 -111.84638 6021 ft 236 kts 101°
2026-05-06 20:34 33.52126 -111.82862 5838 ft 225 kts 128°
2026-05-06 20:34 33.51049 -111.81576 5631 ft 216 kts 148°
2026-05-06 20:34 33.49708 -111.80927 5522 ft 202 kts 174°
2026-05-06 20:34 33.48328 -111.80937 5216 ft 198 kts 186°
2026-05-06 20:35 33.46951 -111.81048 4868 ft 198 kts 185°
2026-05-06 20:35 33.45595 -111.81262 4537 ft 195 kts 202°
2026-05-06 20:35 33.44522 -111.82194 4223 ft 191 kts 234°
2026-05-06 20:35 33.44063 -111.83643 3917 ft 187 kts 267°
2026-05-06 20:36 33.44055 -111.85189 3525 ft 191 kts 269°
2026-05-06 20:36 33.44058 -111.86747 3213 ft 182 kts 270°
2026-05-06 20:36 33.44061 -111.88196 2977 ft 165 kts 270°
2026-05-06 20:36 33.44063 -111.89509 2752 ft 151 kts 271°
2026-05-06 20:37 33.44066 -111.90750 2563 ft 146 kts 270°
2026-05-06 20:37 33.44069 -111.91943 2379 ft 142 kts 269°
2026-05-06 20:37 33.44070 -111.93117 2196 ft 141 kts 270°
2026-05-06 20:37 33.44068 -111.94295 2032 ft 143 kts 270°
2026-05-06 20:38 33.44076 -111.95495 1855 ft 143 kts 270°
2026-05-06 20:38 33.44079 -111.96685 1644 ft 143 kts 269°
2026-05-06 20:38 33.44078 -111.97870 1418 ft 142 kts 270°
2026-05-06 20:38 33.44085 -111.99050 1205 ft 141 kts 270°
2026-05-06 20:39 33.44089 -112.00161 1133 ft 113 kts 269°
2026-05-06 20:39 33.44087 -112.00895 1130 ft 64 kts 270°
2026-05-06 20:39 33.44085 -112.01233 1132 ft 25 kts 270°
2026-05-06 20:39 33.44011 -112.01388 1134 ft 23 kts 218°
2026-05-06 20:40 33.43885 -112.01431 1131 ft 14 kts 128°
2026-05-06 20:40 33.43897 -112.01325 1132 ft 12 kts 77°
2026-05-06 20:40 33.43903 -112.01232 1131 ft 10 kts 88°
2026-05-06 20:40 33.43903 -112.01127 1131 ft 18 kts 91°
2026-05-06 20:41 33.43900 -112.00954 1131 ft 22 kts 89°
2026-05-06 20:41 33.43901 -112.00764 1131 ft 23 kts 90°
2026-05-06 20:41 33.43900 -112.00562 1131 ft 25 kts 90°
2026-05-06 20:41 33.43909 -112.00349 1133 ft 26 kts 82°
2026-05-06 20:42 33.43905 -112.00145 1131 ft 23 kts 91°
2026-05-06 20:42 33.43903 -111.99954 1131 ft 23 kts 89°
2026-05-06 20:42 33.43871 -111.99796 1131 ft 15 kts 141°
2026-05-06 20:42 33.43791 -111.99773 1132 ft 8 kts 144°
2026-05-06 20:43 33.43787 -111.99735 1131 ft 1 kts 87°
2026-05-06 20:43 33.43787 -111.99732 1134 ft 0 kts 89°